West Bend, WI

5:32 PM CST on November 22, 2019 (GMT -0600)
West Bend Municipal

Weather History for KETB - August, 2019

Change the Weather History Date:

Tuesday, August 27, 2019

  Actual Average Record
Temperature  
Mean Temperature 68 °F -  
Max Temperature 77 °F 78 °F 94 °F (1937)
Min Temperature 57 °F 59 °F 43 °F (1968)
Cooling Degree Days 3    
Growing Degree Days 18 (Base 50)    
Moisture  
Dew Point 55 °F    
Average Humidity 70    
Maximum Humidity 100    
Minimum Humidity 39    
Precipitation  
Precipitation 0.00 in - - ()
Sea Level Pressure  
Sea Level Pressure 29.77 in    
Wind  
Wind Speed 10 mph (WSW)    
Max Wind Speed 18 mph    
Max Gust Speed 24 mph    
Visibility 10 miles    
Events      
Averages and records for this station are not official NWS values.
T = Trace of Precipitation, MM = Missing Value Source: NWS Daily Summary

Daily Weather History Graph

Daily Weather History Graph

Search for Another Location

Airport or City:

Astronomy

Aug. 27, 2019 Rise Set
Actual Time 6:10 AM CDT 7:36 PM CDT
Civil Twilight 5:40 AM CDT 8:06 PM CDT
Nautical Twilight 5:04 AM CDT 8:42 PM CDT
Astronomical Twilight 4:26 AM CDT 9:20 PM CDT
Moon 2:28 AM CDT (8/27) 6:03 PM CDT (8/27)
Length of Visible Light 14h 25m
Length of Day
13h 25m
Waning Crescent, 11% of the Moon is Illuminated
Aug 27
Waning Crescent
Aug 30
New
Sep 5
First Quarter
Sep 13
Full
Sep 21
Last Quarter

Hourly Weather History & Observations

Time (CDT) Temp. Dew Point Humidity Pressure Visibility Wind Dir Wind Speed Gust Speed Precip Events Conditions
12:15 AM 64.4 °F 64.4 °F 100% 29.68 in 10.0 mi West 11.5 mph - N/A   Overcast
12:35 AM 64.4 °F 64.4 °F 100% 29.68 in 10.0 mi West 8.1 mph - N/A   Overcast
12:55 AM 64.4 °F 64.4 °F 100% 29.69 in 10.0 mi WSW 5.8 mph - N/A   Overcast
1:15 AM 64.4 °F 64.4 °F 100% 29.69 in 10.0 mi West 8.1 mph - N/A   Overcast
1:35 AM 64.4 °F 64.4 °F 100% 29.69 in 7.0 mi West 11.5 mph - N/A   Overcast
1:55 AM 64.4 °F 64.4 °F 100% 29.69 in 10.0 mi West 10.4 mph - N/A   Overcast
2:15 AM 64.4 °F 62.6 °F 94% 29.69 in 10.0 mi West 6.9 mph - N/A   Overcast
2:35 AM 64.4 °F 62.6 °F 94% 29.70 in 10.0 mi West 6.9 mph - N/A   Overcast
2:55 AM 62.6 °F 62.6 °F 100% 29.70 in 10.0 mi West 9.2 mph - N/A   Mostly Cloudy
3:15 AM 62.6 °F 62.6 °F 100% 29.70 in 10.0 mi West 8.1 mph - N/A   Mostly Cloudy
3:35 AM 62.6 °F 60.8 °F 94% 29.71 in 10.0 mi West 8.1 mph - N/A   Mostly Cloudy
3:55 AM 62.6 °F 60.8 °F 94% 29.71 in 10.0 mi West 6.9 mph - N/A   Mostly Cloudy
4:15 AM 60.8 °F 60.8 °F 100% 29.71 in 10.0 mi West 4.6 mph - N/A   Mostly Cloudy
4:35 AM 60.8 °F 60.8 °F 100% 29.72 in 10.0 mi West 5.8 mph - N/A   Scattered Clouds
4:55 AM 60.8 °F 59.0 °F 94% 29.72 in 10.0 mi WSW 5.8 mph - N/A   Clear
5:15 AM 59.0 °F 59.0 °F 100% 29.72 in 10.0 mi SW 4.6 mph - N/A   Clear
5:35 AM 59.0 °F 59.0 °F 100% 29.73 in 10.0 mi SSW 4.6 mph - N/A   Clear
5:55 AM 59.0 °F 59.0 °F 100% 29.73 in 10.0 mi SW 4.6 mph - N/A   Clear
6:15 AM 59.0 °F 59.0 °F 100% 29.73 in 10.0 mi WSW 5.8 mph - N/A   Clear
6:35 AM 60.8 °F 59.0 °F 94% 29.73 in 10.0 mi WSW 6.9 mph - N/A   Clear
6:55 AM 60.8 °F 59.0 °F 94% 29.75 in 10.0 mi West 9.2 mph - N/A   Clear
7:15 AM 60.8 °F 59.0 °F 94% 29.75 in 10.0 mi West 10.4 mph - N/A   Clear
7:35 AM 60.8 °F 60.8 °F 100% 29.76 in 10.0 mi West 8.1 mph - N/A   Clear
7:55 AM 62.6 °F 60.8 °F 94% 29.76 in 10.0 mi West 9.2 mph - N/A   Clear
8:15 AM 64.4 °F 60.8 °F 88% 29.76 in 10.0 mi West 11.5 mph - N/A   Clear
8:35 AM 64.4 °F 60.8 °F 88% 29.77 in 10.0 mi WSW 8.1 mph - N/A   Clear
9:15 AM 66.2 °F 59.0 °F 78% 29.77 in 10.0 mi West 12.7 mph - N/A   Clear
9:35 AM 68.0 °F 59.0 °F 73% 29.78 in 10.0 mi West 12.7 mph 18.4 mph N/A   Clear
9:55 AM 68.0 °F 59.0 °F 73% 29.78 in 10.0 mi West 13.8 mph 18.4 mph N/A   Clear
10:15 AM 69.8 °F 59.0 °F 68% 29.78 in 10.0 mi West 12.7 mph - N/A   Clear
10:35 AM 69.8 °F 59.0 °F 68% 29.78 in 10.0 mi West 10.4 mph - N/A   Clear
10:55 AM 69.8 °F 59.0 °F 68% 29.78 in 10.0 mi West 13.8 mph 17.3 mph N/A   Clear
11:35 AM 71.6 °F 57.2 °F 60% 29.78 in 10.0 mi West 10.4 mph - N/A   Clear
11:55 AM 71.6 °F 57.2 °F 60% 29.78 in 10.0 mi West 11.5 mph 17.3 mph N/A   Clear
12:15 PM 73.4 °F 55.4 °F 53% 29.78 in 10.0 mi West 10.4 mph 18.4 mph N/A   Clear
12:35 PM 73.4 °F 55.4 °F 53% 29.78 in 10.0 mi WSW 13.8 mph 17.3 mph N/A   Clear
12:55 PM 73.4 °F 53.6 °F 50% 29.78 in 10.0 mi West 15.0 mph 18.4 mph N/A   Clear
1:15 PM 73.4 °F 53.6 °F 50% 29.78 in 10.0 mi West 16.1 mph 19.6 mph N/A   Scattered Clouds
1:35 PM 75.2 °F 53.6 °F 47% 29.77 in 10.0 mi WSW 15.0 mph 18.4 mph N/A   Clear
1:55 PM 77.0 °F 51.8 °F 41% 29.77 in 10.0 mi West 18.4 mph 23.0 mph N/A   Scattered Clouds
2:15 PM 75.2 °F 53.6 °F 47% 29.77 in 10.0 mi WSW 11.5 mph 21.9 mph N/A   Scattered Clouds
2:35 PM 77.0 °F 53.6 °F 44% 29.76 in 10.0 mi WSW 12.7 mph 17.3 mph N/A   Scattered Clouds
2:55 PM 77.0 °F 53.6 °F 44% 29.76 in 10.0 mi SW 16.1 mph 21.9 mph N/A   Scattered Clouds
3:15 PM 73.4 °F 51.8 °F 47% 29.76 in 10.0 mi WSW 10.4 mph 16.1 mph N/A   Mostly Cloudy
3:35 PM 73.4 °F 53.6 °F 50% 29.77 in 10.0 mi WSW 11.5 mph 21.9 mph N/A   Overcast
3:55 PM 75.2 °F 53.6 °F 47% 29.77 in 10.0 mi WSW 9.2 mph 18.4 mph N/A   Mostly Cloudy
4:15 PM 75.2 °F 53.6 °F 47% 29.76 in 10.0 mi West 15.0 mph 19.6 mph N/A   Mostly Cloudy
4:35 PM 77.0 °F 51.8 °F 41% 29.76 in 10.0 mi West 13.8 mph 23.0 mph N/A   Scattered Clouds
4:55 PM 77.0 °F 50.0 °F 39% 29.76 in 10.0 mi WSW 16.1 mph 24.2 mph N/A   Clear
5:15 PM 75.2 °F 50.0 °F 41% 29.77 in 10.0 mi WSW 13.8 mph 21.9 mph N/A   Clear
5:35 PM 73.4 °F 50.0 °F 44% 29.77 in 10.0 mi WSW 16.1 mph 24.2 mph N/A   Clear
5:55 PM 73.4 °F 50.0 °F 44% 29.78 in 10.0 mi West 15.0 mph 23.0 mph N/A   Scattered Clouds
6:15 PM 73.4 °F 50.0 °F 44% 29.78 in 10.0 mi West 11.5 mph 19.6 mph N/A   Scattered Clouds
6:35 PM 69.8 °F 50.0 °F 49% 29.79 in 10.0 mi West 6.9 mph - N/A   Scattered Clouds
7:15 PM 69.8 °F 46.4 °F 43% 29.80 in 10.0 mi West 11.5 mph 24.2 mph N/A   Scattered Clouds
7:35 PM 68.0 °F 44.6 °F 43% 29.81 in 10.0 mi WSW 11.5 mph 18.4 mph N/A   Clear
7:55 PM 68.0 °F 42.8 °F 40% 29.82 in 10.0 mi West 11.5 mph 17.3 mph N/A   Scattered Clouds
8:15 PM 68.0 °F 42.8 °F 40% 29.83 in 10.0 mi WSW 10.4 mph - N/A   Mostly Cloudy
8:35 PM 66.2 °F 44.6 °F 46% 29.84 in 10.0 mi WSW 8.1 mph - N/A   Scattered Clouds
8:55 PM 64.4 °F 44.6 °F 49% 29.84 in 10.0 mi West 8.1 mph - N/A   Clear
9:15 PM 64.4 °F 44.6 °F 49% 29.85 in 10.0 mi West 6.9 mph - N/A   Clear
9:35 PM 62.6 °F 44.6 °F 52% 29.85 in 10.0 mi West 5.8 mph - N/A   Scattered Clouds
9:55 PM 62.6 °F 46.4 °F 55% 29.85 in 10.0 mi WSW 4.6 mph - N/A   Clear
10:15 PM 60.8 °F 46.4 °F 59% 29.85 in 10.0 mi WSW 4.6 mph - N/A   Clear
10:35 PM 59.0 °F 50.0 °F 72% 29.85 in 10.0 mi SW 5.8 mph - N/A   Scattered Clouds
10:55 PM 59.0 °F 50.0 °F 72% 29.84 in 10.0 mi SW 5.8 mph - N/A   Scattered Clouds
11:15 PM 59.0 °F 50.0 °F 72% 29.84 in 10.0 mi SW 5.8 mph - N/A   Clear
11:35 PM 59.0 °F 50.0 °F 72% 29.83 in 10.0 mi SW 4.6 mph - N/A   Clear
11:55 PM 57.2 °F 50.0 °F 77% 29.83 in 10.0 mi SSW 4.6 mph - N/A   Clear